[[{"header":{"parameterUnit":"m.s-1","parameterCategory":1,"la1":30.2992,"la2":30.254,"lo1":-89.0895,"lo2":-89.0443,"dy":0.0025,"dx":0.0025,"nx":19,"ny":19,"refTime":"2026-04-10T09:00:00:Z","depth":0,"parameterNumber":2,"parameterNumberName":"U-component_of_WINDS"},"data":[0,0,0,-6.6663,-6.6667,-6.6862,-6.6863,-6.713,-6.7133,0,0,0,0,0,0,0,0,0,0,0,-6.6618,-6.662,-6.6662,-6.6668,-6.6862,-6.6863,-6.713,-6.7133,0,0,0,0,0,0,0,0,0,0,0,-6.6616,-6.6619,-6.6622,-6.6668,-6.6862,-6.6863,-6.7129,-6.6975,0,0,0,0,0,0,0,0,0,0,-6.6783,-6.6754,-6.6619,-6.6622,-6.667,-6.6862,-6.6863,-6.6967,-6.6985,-6.705,0,-6.7113,0,-6.7128,-6.7152,-6.7153,0,0,0,-6.6658,-6.6739,-6.6781,-6.6622,-6.6671,-6.6862,-6.6771,-6.6977,-6.6997,-6.7073,-6.7117,-6.7126,-6.7132,-6.7154,-6.7155,-6.757,-6.7573,0,0,-6.6647,-6.6659,-6.6767,-6.6794,-6.6767,-6.6765,-6.6778,-6.6988,-6.7036,-6.7118,-6.7132,-6.7136,-6.7156,-6.7158,-6.7568,-6.7571,0,0,0,-6.6623,-6.6652,-6.6687,-6.6784,-6.6818,-6.6771,-6.6785,-6.7026,-6.7037,-6.7135,-6.714,-6.7157,-6.7161,-6.7565,-6.7569,-6.7701,0,0,0,-6.6616,-6.6638,-6.6683,-6.6693,-6.6814,-6.6925,-6.6819,-6.7023,-6.7046,-6.7138,-6.7157,-6.7164,-6.7563,-6.7567,-6.7692,-6.7761,0,0,0,-6.66,-6.6636,-6.6668,-6.6693,-6.6777,-6.6921,-6.6944,-6.7027,-6.705,-6.7153,-6.7164,-6.7561,-6.7566,-6.7683,-6.7747,-6.7875,0,0,0,-6.6587,-6.6781,-6.6671,-6.6889,-6.6776,-6.7002,-6.6942,-6.7109,-6.7214,-6.7159,-6.7563,-6.7569,-6.7681,-6.7739,-6.7866,-6.7984,-6.8035,0,0,-6.6839,-6.6812,-6.694,-6.6846,-6.7096,-6.6971,-6.7239,-6.7322,-6.7319,-6.7486,-6.7496,-6.7695,-6.7746,-6.7873,-6.8313,-6.8353,0,0,0,-6.7023,-6.7116,-6.7179,-6.728,-6.735,-6.7415,-6.7456,-6.7487,-6.7629,-6.7408,-6.7774,-6.7805,-6.7878,-6.7934,-6.7969,-6.8031,-6.7595,-6.7594,-6.7594,-6.7396,-6.7385,-6.7596,-6.7609,-6.7707,-6.7749,-6.7828,-6.7876,-6.7834,-6.7921,-6.797,-6.8239,-6.8305,-6.8331,-6.8396,-6.8031,-6.8032,-6.8032,-6.8033,-6.7764,-6.7893,-6.7835,-6.8018,-6.8005,-6.8158,-6.8206,-6.8171,-6.8311,-6.82,-6.8264,-6.8144,-6.8375,-6.8432,-6.8042,-6.8041,-6.804,-6.8039,-6.8038,-6.8008,-6.8067,-6.8103,-6.825,-6.8363,-6.8368,-6.8507,-6.8488,-6.8472,-6.8536,-6.8586,-6.8584,-6.858,-6.8561,-6.8562,-6.8563,-6.8564,-6.8565,-6.8565,-6.8246,-6.8282,-6.8402,-6.8494,-6.8557,-6.8638,-6.8682,-6.8744,-6.8807,-6.8782,-6.8783,-6.8732,-6.84,-6.8317,-6.858,-6.8577,-6.8575,-6.8574,-6.8573,-6.8624,-6.8536,-6.8721,-6.8785,-6.8891,-6.9006,-6.8982,-6.9108,-6.9156,-6.9225,-6.9161,-6.8919,-6.8889,-6.8862,-6.8793,-6.9163,-6.9163,-6.9163,-6.9163,-6.8829,-6.8813,-6.8999,-6.9103,-6.9201,-6.9199,-6.9408,-6.9445,-6.9468,-6.9497,-6.9441,-6.9348,-6.9321,-6.9308,-6.9271,-6.9206,-6.9673,-6.9673,-6.9674,-6.9061,-6.9054,-6.9236,-6.926,-6.9343,-6.9413,-6.9609,-6.9729,-6.9737,-6.9694,-6.9519,-6.9498,-6.9348,-6.93,-6.9252,-6.9195,-6.9076,0,0]},{"header":{"parameterUnit":"m.s-1","parameterCategory":1,"la1":30.2992,"la2":30.254,"lo1":-89.0895,"lo2":-89.0443,"dy":0.0025,"dx":0.0025,"nx":19,"ny":19,"refTime":"2026-04-10T09:00:00:Z","depth":0,"parameterNumber":3,"parameterNumberName":"V-component_of_WINDS"},"data":[0,0,0,-0.044,-0.0438,-0.0329,-0.0328,-0.0208,-0.0207,0,0,0,0,0,0,0,0,0,0,0,-0.0484,-0.0484,-0.044,-0.0438,-0.0329,-0.0328,-0.0208,-0.0207,0,0,0,0,0,0,0,0,0,0,0,-0.0484,-0.0484,-0.0483,-0.0438,-0.0329,-0.0328,-0.0208,-0.0284,0,0,0,0,0,0,0,0,0,0,-0.0387,-0.0439,-0.0484,-0.0483,-0.0437,-0.0329,-0.0328,-0.0287,-0.0279,-0.0266,0,-0.0256,0,-0.023,-0.02,-0.02,0,0,0,-0.043,-0.0445,-0.0405,-0.0483,-0.0436,-0.0329,-0.0376,-0.0283,-0.0274,-0.0255,-0.0254,-0.0249,-0.0228,-0.02,-0.0199,-0.0146,-0.0146,0,0,-0.0436,-0.0471,-0.0412,-0.04,-0.0417,-0.0379,-0.0372,-0.0277,-0.0279,-0.0254,-0.0246,-0.0226,-0.0199,-0.0198,-0.0146,-0.0146,0,0,0,-0.0459,-0.0476,-0.0437,-0.0406,-0.0384,-0.0376,-0.0368,-0.0283,-0.0267,-0.0245,-0.0224,-0.0198,-0.0197,-0.0145,-0.0146,-0.0185,0,0,0,-0.0462,-0.0489,-0.044,-0.0461,-0.0386,-0.0332,-0.0377,-0.0274,-0.0262,-0.0225,-0.0198,-0.0196,-0.0145,-0.0146,-0.0184,-0.0198,0,0,0,-0.0487,-0.0492,-0.048,-0.0463,-0.0417,-0.0333,-0.0312,-0.0271,-0.025,-0.02,-0.0196,-0.0145,-0.0145,-0.0182,-0.0196,-0.0193,0,0,0,-0.0525,-0.0518,-0.0481,-0.0465,-0.0418,-0.0358,-0.0312,-0.0266,-0.0227,-0.0198,-0.0145,-0.0146,-0.0182,-0.0195,-0.0192,-0.0197,-0.0202,0,0,-0.0536,-0.0521,-0.0509,-0.0472,-0.0427,-0.0372,-0.0333,-0.0265,-0.023,-0.0176,-0.0174,-0.0184,-0.0196,-0.0193,-0.0222,-0.0226,0,0,0,-0.0524,-0.0516,-0.0496,-0.046,-0.0408,-0.0363,-0.0297,-0.0272,-0.0224,-0.0209,-0.0182,-0.0188,-0.0185,-0.0185,-0.0189,-0.0184,-0.0148,-0.0148,-0.0148,-0.059,-0.0543,-0.0519,-0.0458,-0.0424,-0.0355,-0.0323,-0.0277,-0.0241,-0.0235,-0.0219,-0.0242,-0.0244,-0.0246,-0.0241,-0.0218,-0.0218,-0.0218,-0.0218,-0.0601,-0.0581,-0.053,-0.0489,-0.0439,-0.0404,-0.0337,-0.0312,-0.0272,-0.0251,-0.0246,-0.0226,-0.0253,-0.0246,-0.0221,-0.022,-0.022,-0.022,-0.022,-0.0639,-0.0621,-0.0589,-0.0531,-0.0491,-0.043,-0.0393,-0.0349,-0.0308,-0.0303,-0.028,-0.0279,-0.0272,-0.0295,-0.0295,-0.0295,-0.0295,-0.0295,-0.0295,-0.069,-0.0653,-0.0626,-0.0568,-0.0538,-0.0494,-0.0423,-0.0393,-0.0348,-0.0319,-0.0319,-0.0282,-0.0264,-0.026,-0.0296,-0.0296,-0.0296,-0.0296,-0.0296,-0.0718,-0.0704,-0.0663,-0.0633,-0.056,-0.0523,-0.0467,-0.0409,-0.0377,-0.036,-0.0324,-0.0319,-0.03,-0.0297,-0.0293,-0.0335,-0.0335,-0.0335,-0.0335,-0.0749,-0.0735,-0.0682,-0.0636,-0.0587,-0.0531,-0.0487,-0.0432,-0.0373,-0.0351,-0.0338,-0.033,-0.0328,-0.0311,-0.0307,-0.0303,-0.0346,-0.0346,-0.0346,-0.0762,-0.0741,-0.0711,-0.0652,-0.0591,-0.054,-0.0496,-0.0446,-0.0377,-0.0346,-0.0332,-0.0331,-0.0317,-0.0315,-0.0284,-0.0279,-0.0271,0,0]}]]